GFSFLT2_925_temp_021.txt.gz
Temp
18 18 18 18 18 18 17 18 18 18 18 18 17 17 17 17 17 17 17 17 17 18 18 18 18 18 18 18 19 19 20 21
19 19 19 17 17 17 17 18 18 17 17 17 17 18 18 17 18 17 17 17 17 18 18 18 18 18 18 19 19 19 20 21
19 20 19 19 18 17 18 18 18 18 18 18 18 19 19 18 17 18 18 18 18 18 18 18 19 18 18 19 19 19 20 20
20 20 20 20 21 18 19 18 19 19 19 18 20 19 19 18 18 18 18 18 18 18 18 18 19 19 20 19 19 18 20 20
18 18 18 20 20 20 20 20 19 19 18 19 19 19 19 19 20 20 19 19 19 19 19 19 18 18 18 18 18 18 19 19
17 17 19 20 20 21 20 20 20 20 19 18 18 19 19 19 20 19 19 19 18 19 19 18 18 18 18 17 17 17 17 17
18 18 19 19 20 19 19 19 18 18 18 17 17 18 17 17 17 18 19 19 19 18 19 18 18 18 17 17 16 16 16 16
20 20 19 19 19 19 18 16 15 15 15 15 17 16 17 17 17 18 17 17 17 17 17 17 17 17 17 17 16 16 16 16
21 20 19 19 17 16 17 18 16 16 15 15 16 16 16 15 16 15 16 16 16 17 16 17 17 17 16 16 16 16 16 15
21 20 19 17 15 16 18 18 15 16 16 14 13 13 14 15 15 16 15 15 16 15 16 15 15 15 15 15 15 15 15 15
20 19 17 15 15 17 16 16 16 15 14 14 14 14 14 16 16 15 14 15 15 14 15 14 14 14 14 14 14 14 14 14
20 18 17 15 15 15 16 15 15 16 16 16 16 15 14 15 15 13 14 14 14 13 13 13 13 14 14 13 13 14 13 13
18 16 15 15 17 17 17 17 17 17 16 15 15 14 14 14 15 14 14 13 13 13 12 12 12 13 13 12 12 12 13 14
18 17 16 18 19 19 19 19 18 17 16 14 14 14 14 14 13 13 13 12 12 12 12 11 11 12 12 11 11 12 13 12
19 18 18 20 20 18 18 17 16 17 16 16 14 13 13 13 12 12 12 11 12 11 11 10 10 10 11 10 10 11 10 10
20 20 19 18 19 19 19 19 19 16 16 15 14 13 12 12 12 11 11 11 11 10 11 9 9 9 9 9 9 9 9 9
19 19 18 18 17 17 17 17 16 15 15 14 14 14 13 13 12 12 11 10 10 10 9 9 8 8 8 8 8 8 8 8
18 18 17 17 16 15 15 15 15 14 14 13 13 12 12 12 11 10 10 10 9 9 9 8 7 7 7 7 7 7 7 7
17 17 16 15 15 14 14 13 13 13 12 12 11 11 11 10 9 9 9 9 9 8 7 6 6 7 6 6 6 6 6 6
17 17 16 15 14 14 12 11 10 11 11 11 11 10 10 9 9 8 8 9 8 6 6 5 5 5 6 5 5 5 5 5

GFSFLT2_925_temp_024.txt.gz
Temp
17 16 17 18 17 17 18 18 18 18 18 18 18 18 18 18 18 18 17 18 18 18 18 18 18 18 19 19 19 19 20 19
16 17 17 17 17 18 18 18 18 18 18 18 18 18 18 18 18 18 18 18 18 18 18 19 18 18 19 19 19 19 19 19
18 18 18 18 18 17 18 18 18 18 18 19 18 18 19 18 18 18 18 18 18 19 19 19 19 18 18 19 18 19 19 19
19 19 18 18 18 18 19 19 19 18 19 19 18 19 19 19 19 19 19 19 19 19 19 19 18 18 18 18 18 18 18 18
19 20 20 19 19 19 19 19 19 19 19 19 19 19 19 19 19 19 19 19 19 19 19 18 18 18 18 17 17 17 17 17
19 20 20 20 20 20 20 20 19 19 18 18 18 18 19 19 19 19 19 18 19 19 18 18 18 18 18 17 17 16 16 16
19 19 20 20 20 20 19 19 18 18 17 18 17 17 18 18 18 18 18 18 18 17 17 17 17 17 17 17 17 16 16 16
19 19 19 20 19 19 19 19 18 17 17 16 17 17 17 17 17 16 17 17 16 16 17 16 16 16 16 16 16 16 16 16
20 19 19 19 18 18 18 18 17 17 17 17 15 17 16 16 16 16 16 16 16 16 16 16 15 15 15 15 15 15 15 15
20 19 19 18 18 18 17 15 17 16 16 15 15 15 15 16 16 16 15 15 15 15 15 14 14 14 14 14 15 14 14 14
20 19 18 17 16 16 16 17 16 16 16 15 15 15 15 16 16 15 15 15 15 14 13 13 13 13 13 14 13 13 13 13
20 19 16 15 16 17 16 16 15 16 16 16 16 15 15 15 15 14 14 14 14 13 13 12 12 12 12 12 13 12 12 12
19 17 16 16 16 16 17 16 17 17 16 16 15 14 14 14 14 14 14 13 12 12 12 12 11 11 11 11 11 11 11 12
17 17 16 16 17 17 18 18 18 17 15 15 14 14 14 14 13 13 12 12 12 12 11 11 11 11 10 10 8 10 11 10
17 17 17 17 18 19 18 17 17 16 15 14 14 13 13 13 13 12 12 11 11 11 11 10 10 9 10 9 7 7 8 9
18 18 18 19 19 19 18 18 17 16 16 14 14 14 13 13 13 12 12 11 10 10 10 10 9 9 9 9 8 8 6 6
19 20 19 19 19 18 18 16 16 15 14 14 14 13 13 12 12 11 10 10 10 10 9 9 9 8 8 7 7 8 8 6
19 19 18 18 17 17 16 15 15 14 13 13 12 12 12 11 11 10 9 9 9 9 9 9 8 7 6 6 7 7 6 6
18 18 17 16 15 14 14 14 14 13 12 12 11 11 11 10 9 9 8 8 8 9 8 7 7 6 6 6 6 6 6 5
18 17 16 15 15 14 13 12 12 12 12 11 11 10 10 9 9 8 8 8 8 8 7 7 6 5 5 5 5 5 5 5

GFSFLT2_925_temp_030.txt.gz
Temp
16 17 17 18 18 18 19 19 19 19 19 19 19 19 19 19 19 19 19 19 19 19 18 18 18 18 18 17 18 17 17 17
14 15 16 17 18 18 18 19 19 18 18 19 19 19 19 19 19 19 19 19 19 19 18 18 18 18 18 18 17 17 17 16
16 16 16 17 18 18 18 19 18 19 19 19 19 19 19 19 19 19 19 19 19 18 18 18 18 18 17 17 17 17 17 16
15 15 16 17 17 18 18 19 19 19 18 18 18 19 18 19 19 18 18 18 18 18 17 17 17 17 17 17 17 16 16 16
17 16 16 18 18 18 19 19 18 18 18 18 18 18 17 18 18 18 17 17 18 17 17 17 17 17 17 16 16 16 16 15
16 16 17 18 19 18 19 19 18 18 18 18 17 17 17 17 17 17 17 17 17 17 17 17 16 16 16 15 15 15 15 15
16 17 18 18 19 18 18 18 17 17 17 17 17 17 18 17 17 17 17 17 17 17 16 16 16 16 15 15 15 14 14 14
17 18 18 18 18 18 18 17 17 17 18 17 18 18 17 17 16 16 16 16 16 16 16 15 15 15 14 14 14 14 13 13
18 18 18 18 19 18 17 17 17 18 18 18 18 18 17 16 16 16 16 15 15 15 15 14 14 14 13 13 13 12 12 12
18 18 18 19 18 17 17 17 18 17 18 17 17 17 16 16 15 15 15 15 14 14 14 13 13 13 12 12 12 12 11 11
18 18 18 18 18 17 17 17 17 17 16 16 15 15 15 15 15 14 14 14 14 13 13 12 12 11 11 11 11 11 11 10
19 19 18 18 18 17 16 16 15 15 15 15 15 15 15 15 14 14 14 14 13 13 12 12 11 11 10 10 10 10 9 9
18 18 18 18 17 16 15 15 15 15 15 15 15 15 14 14 14 14 14 13 12 12 11 11 10 10 10 9 9 9 9 8
18 18 17 17 18 17 17 16 15 15 15 14 14 15 14 14 14 13 13 12 12 11 11 10 10 9 9 7 5 7 8 8
18 17 18 17 18 17 16 15 15 14 14 14 14 14 14 14 13 12 12 11 11 10 10 9 9 9 8 8 4 3 4 7
17 17 17 17 17 17 16 15 14 14 14 14 14 13 13 13 12 12 11 11 10 9 9 8 8 8 7 7 7 6 3 2
16 17 17 17 16 16 16 16 14 15 14 14 13 13 12 12 12 11 10 9 9 8 8 8 8 7 7 6 6 6 6 3
16 17 16 16 16 16 16 16 15 14 13 13 13 12 11 10 10 10 9 8 8 8 7 7 7 7 6 6 5 5 5 4
17 16 16 17 16 16 15 15 15 14 13 13 12 11 11 10 9 9 8 7 7 7 7 7 7 6 6 5 5 5 4 4
15 16 16 16 16 15 15 15 14 14 13 12 11 10 9 9 8 8 7 7 7 7 6 6 6 5 5 5 5 5 4 3

GFSFLT2_925_temp_036.txt.gz
Temp
15 15 16 17 18 18 18 18 17 18 18 18 18 18 18 19 19 18 18 18 18 18 18 18 18 18 18 17 17 17 16 16
15 14 14 16 17 18 17 18 17 18 18 18 18 18 18 18 18 18 18 18 18 18 18 17 17 17 17 17 17 16 16 15
12 13 15 16 17 17 17 17 19 19 18 18 18 18 18 18 18 17 18 18 18 17 17 17 17 16 16 16 16 16 15 15
14 14 16 16 16 16 17 19 18 18 17 18 18 18 18 18 17 18 17 17 17 17 17 17 16 16 16 15 15 15 15 15
13 14 15 16 16 17 18 17 18 17 18 18 18 17 17 18 17 17 17 17 17 17 17 17 16 15 15 15 14 14 14 14
14 15 15 15 17 18 17 17 17 17 17 17 17 17 17 17 17 17 17 17 17 17 16 16 15 15 14 14 14 13 13 13
14 15 15 16 17 17 17 17 17 17 17 17 17 17 17 17 17 17 17 16 16 16 15 15 15 14 14 13 13 13 13 13
15 16 15 16 16 16 17 17 17 17 17 17 17 18 17 17 17 16 16 16 15 15 15 14 14 13 13 12 12 12 12 12
14 15 15 15 16 16 17 17 16 17 17 17 17 17 17 17 16 16 16 15 15 14 14 13 13 12 12 12 11 11 10 10
16 15 16 16 16 16 17 17 16 17 16 16 16 16 16 16 16 15 15 15 14 14 13 13 12 12 11 11 10 10 10 10
16 16 16 17 16 16 16 16 16 16 15 15 16 16 15 15 15 15 14 14 13 13 12 12 11 11 10 10 10 9 9 9
17 17 16 16 16 16 16 15 15 16 15 16 16 15 15 15 14 14 13 13 13 12 12 11 10 10 9 9 9 8 8 8
17 17 17 17 16 15 15 15 15 15 15 15 15 14 14 14 14 13 12 12 12 11 11 10 9 9 9 8 8 7 7 7
17 17 17 16 16 16 15 15 15 16 15 15 14 14 14 13 13 12 12 12 11 10 10 9 8 8 8 6 3 6 7 7
16 16 16 16 16 15 15 15 15 14 14 14 14 13 13 13 12 12 11 11 10 9 9 9 8 8 8 8 4 4 4 7
16 16 16 16 16 16 15 15 14 13 14 14 13 12 12 12 12 11 10 10 10 9 8 8 8 7 7 7 6 6 3 3
16 16 16 15 16 16 15 15 14 13 13 13 12 12 12 11 11 10 10 10 9 9 8 8 8 7 7 6 6 6 5 3
16 15 15 15 15 15 15 14 13 13 12 11 11 11 11 10 10 10 10 9 8 8 8 8 7 6 6 6 5 5 4 3
15 15 14 14 14 14 14 14 14 14 13 12 11 10 10 9 10 9 8 8 8 8 8 7 6 6 6 5 5 5 5 4
15 15 17 15 14 14 14 13 14 13 13 12 11 11 10 9 9 9 8 8 8 8 7 7 6 6 6 5 5 5 4 4

GFSFLT2_925_temp_039.txt.gz
Temp
15 15 14 16 17 18 18 17 18 17 17 18 18 18 18 18 18 18 18 18 18 18 18 18 17 17 17 17 16 16 15 15
15 14 14 15 16 17 18 18 17 17 19 18 18 18 18 18 18 17 17 18 18 18 17 17 17 17 16 16 16 16 15 15
12 13 13 15 15 17 17 18 17 17 18 18 18 18 17 18 18 18 17 17 17 17 17 17 17 16 16 16 16 15 14 14
12 12 13 15 17 17 17 16 16 18 18 18 18 18 17 17 17 17 17 17 17 17 17 16 16 16 15 15 15 15 15 14
12 13 13 15 17 16 16 16 16 18 18 18 18 17 17 17 17 17 17 17 16 16 16 16 16 15 15 15 15 14 14 14
12 14 14 14 15 16 16 16 18 18 17 18 17 17 17 17 17 17 17 16 17 16 16 15 15 15 15 14 14 13 13 13
14 14 14 15 15 15 16 17 17 17 17 17 17 17 17 17 17 16 16 16 16 16 15 15 15 14 13 13 13 13 13 12
12 14 15 14 15 16 17 17 17 17 17 17 17 17 17 17 16 16 16 16 16 16 15 15 14 13 13 13 12 12 12 12
13 14 14 14 15 16 17 16 16 17 17 17 17 17 17 16 16 16 15 15 15 15 14 14 13 12 12 11 11 11 11 11
14 14 15 15 15 16 17 17 17 16 17 17 17 16 16 16 16 15 15 15 14 14 13 13 12 11 11 10 10 10 10 10
14 14 15 15 15 16 16 17 16 16 16 16 15 15 16 16 16 15 14 14 14 13 13 12 11 11 10 10 9 8 8 8
15 15 16 15 15 16 16 16 15 16 15 15 15 15 15 15 15 14 14 13 13 12 12 11 11 10 10 9 8 7 7 7
15 15 16 15 15 15 14 14 15 15 14 14 14 14 15 14 14 14 13 13 12 12 11 11 10 10 9 9 7 7 7 7
15 15 16 16 15 16 14 14 14 14 14 14 14 14 14 14 14 13 12 12 12 11 11 10 9 8 9 9 11 9 7 7
15 15 16 16 16 16 15 15 14 13 13 14 13 13 13 13 13 13 12 12 11 11 10 9 9 7 7 10 11 11 8 7
16 15 16 16 16 15 15 15 14 12 13 13 13 12 13 13 12 12 11 11 11 10 9 8 8 8 6 7 7 7 10 9
15 15 15 15 16 14 14 14 14 14 13 13 12 12 12 12 12 11 11 11 10 9 8 8 7 8 8 7 6 6 6 7
15 15 14 14 14 14 14 13 14 14 13 12 12 11 11 11 11 11 11 10 9 8 7 7 7 7 7 6 7 7 7 7
15 15 14 15 14 13 13 13 14 14 14 13 12 11 10 10 10 10 9 9 8 8 8 7 7 6 6 6 5 6 5 5
15 15 15 17 15 15 13 13 13 13 14 13 12 11 10 10 9 9 9 8 8 8 7 7 7 6 6 5 5 5 4 4

GFSFLT2_925_temp_042.txt.gz
Temp
16 16 16 16 15 16 17 17 17 17 17 17 18 18 18 18 18 18 18 18 18 18 18 17 17 17 17 17 17 17 18 18
15 15 15 15 16 17 17 17 17 18 18 17 17 18 18 18 18 18 18 18 18 17 17 17 17 16 16 16 16 17 18 18
13 13 13 13 15 15 16 17 17 18 18 17 18 17 17 18 17 17 17 17 17 17 17 17 17 16 16 16 17 17 17 17
12 12 12 14 15 15 16 16 17 17 18 17 18 18 18 18 16 17 17 17 17 17 16 16 17 17 16 16 17 16 17 17
11 11 12 12 14 15 15 15 16 16 17 17 17 17 17 17 16 16 16 16 16 16 16 17 16 16 16 16 16 16 16 16
10 10 11 13 14 15 16 17 17 17 17 17 17 18 17 18 18 17 17 17 16 16 16 15 15 15 15 14 14 15 15 15
11 12 12 14 14 15 14 15 16 17 16 17 18 18 17 18 17 17 17 16 16 16 15 15 14 14 14 14 14 14 13 14
12 12 13 13 14 15 15 15 16 16 17 17 16 17 17 17 16 16 16 16 16 16 16 15 15 14 14 13 13 13 13 13
13 14 15 16 16 16 16 16 16 17 17 16 16 17 16 16 16 16 16 15 15 15 14 14 15 14 14 13 13 12 13 12
15 15 15 15 16 16 17 17 17 17 17 16 15 15 15 15 15 15 15 15 15 15 15 15 15 14 14 13 13 12 12 12
16 15 16 16 16 16 16 16 17 17 16 16 15 15 14 15 15 15 14 15 14 14 14 15 14 14 14 13 12 12 11 11
17 16 16 16 16 16 16 17 17 17 16 16 15 15 15 15 15 14 14 14 14 14 14 14 14 14 14 13 12 11 11 11
17 17 17 16 16 16 17 17 17 16 15 15 14 15 14 15 15 13 14 14 14 13 13 13 13 12 13 13 12 10 10 11
18 18 17 17 17 17 18 18 17 17 16 15 14 15 14 14 14 14 14 13 12 12 13 13 13 12 13 13 16 13 10 10
18 18 18 18 18 18 17 17 17 16 14 14 14 14 14 14 13 14 13 13 13 12 12 12 13 11 10 12 14 16 14 12
19 19 19 18 18 18 17 18 18 17 15 14 14 13 13 13 13 13 12 13 12 12 12 12 11 11 9 9 10 12 14 14
19 19 19 18 17 18 17 18 19 19 16 15 14 13 12 12 12 12 12 12 12 11 10 10 10 9 9 11 11 11 10 11
19 19 19 18 17 16 17 17 18 15 15 14 13 12 12 11 11 11 11 11 10 10 10 9 8 7 10 11 11 11 12 11
19 19 19 17 16 16 15 15 16 14 14 14 13 12 10 10 10 10 10 10 10 9 9 7 7 8 9 10 9 9 9 9
19 19 18 16 15 15 16 14 14 13 14 14 13 11 10 10 10 9 10 9 8 9 8 8 7 8 8 8 9 8 8 8

GFSFLT2_925_temp_045.txt.gz
Temp
16 16 16 16 16 16 16 16 16 17 17 17 18 18 18 18 19 19 18 18 18 18 18 17 17 17 17 17 18 19 20 19
15 15 16 16 16 16 16 16 16 17 18 18 18 18 18 18 18 18 18 18 18 18 17 17 17 17 17 17 17 18 19 20
15 15 15 15 16 16 16 16 17 17 18 18 18 18 18 18 18 18 18 18 18 17 17 17 17 17 17 17 18 18 19 19
13 14 14 14 14 15 15 16 16 16 17 18 18 18 18 18 17 17 18 17 17 17 17 17 18 18 17 18 18 18 18 18
12 13 14 14 15 15 16 17 17 16 18 18 18 18 18 17 16 16 16 17 16 16 17 17 18 18 17 17 17 18 18 18
11 11 12 13 14 14 16 15 16 16 17 18 18 18 18 18 18 18 18 18 18 18 18 17 16 16 16 16 16 16 16 17
11 12 13 13 12 13 15 16 16 17 17 18 18 18 18 19 19 19 19 18 18 18 17 17 16 16 16 16 16 15 15 16
10 10 11 11 12 14 15 16 16 17 17 17 18 19 18 19 18 19 18 18 18 18 17 17 17 16 15 15 15 15 15 14
11 11 11 12 14 15 15 15 16 16 17 17 17 18 18 19 18 18 18 18 17 17 17 17 17 17 16 15 15 15 15 14
11 13 13 14 15 16 17 17 17 18 18 17 17 18 18 17 18 18 17 17 17 17 17 17 17 17 16 16 15 15 14 14
14 14 14 15 16 17 17 18 18 19 19 18 17 17 17 17 18 17 16 17 17 17 17 17 17 17 16 16 15 15 14 14
15 16 15 16 16 18 18 18 18 19 19 19 17 17 16 16 18 17 16 17 16 16 16 16 17 16 16 16 15 14 14 13
18 17 17 16 16 18 18 18 19 19 19 19 18 17 16 16 18 16 16 17 16 15 15 15 15 15 15 16 16 14 12 13
19 18 18 17 17 18 19 19 19 19 19 17 16 17 17 16 17 16 15 16 16 14 15 15 16 14 15 15 16 15 13 12
20 20 19 19 20 19 20 20 20 19 19 18 16 16 17 16 16 16 16 16 15 14 14 15 15 14 13 13 13 15 16 15
21 21 20 19 20 20 20 20 20 20 19 17 16 16 16 16 16 15 15 15 15 14 14 14 14 15 12 11 11 12 14 15
21 21 21 21 20 20 20 20 20 21 20 18 17 17 15 15 15 14 14 14 14 14 14 13 13 11 12 12 12 12 12 12
21 21 21 21 21 20 20 20 19 20 19 18 18 16 15 15 15 13 13 13 13 13 12 11 10 9 9 11 13 13 13 13
22 21 21 21 21 19 19 19 18 17 17 17 16 16 15 14 13 12 12 12 12 12 11 10 9 9 9 11 12 11 11 11
23 22 22 22 20 19 17 17 17 16 16 15 14 14 13 13 12 11 11 11 11 10 10 9 9 8 9 10 10 10 10 10